Tracking 20066 objects as of 7-Dec-2019
HD Live streaming from Space Station
objects crossing your sky now

COSMOS 2251 DEB

Track COSMOS 2251 DEB now!
10-day predictions


NORAD ID: 34327
Int'l Code: 1993-036NZ
Perigee: 666.1 km
Apogee: 739.0 km
Inclination: 74.0 °
Period: 98.7 minutes
Semi major axis: 7073 km
RCS: 0.0428 m2 (small)
Launch date: June 16, 1993
Source: Commonwealth of Independent States (former USSR) (CIS)
Launch site: PLESETSK MISSILE AND SPACE COMPLEX (PKMTR)

Note: This is SATELLITE DEBRIS
aabbcc
Your satellite tracking list
Your tracking list is empty




NASA's NSSDC Master Catalog

Two Line Element Set (TLE):
1 34327U 93036NZ  19340.75461797 +.00000423 +00000-0 +94270-4 0  9998
2 34327 074.0082 099.7747 0051562 098.1363 019.9427 14.59302350573070
Source of the keplerian elements: AFSPC